Estación de Monte Patria - Chilecito

Ultimos registro cada 15 minutos 38
Estación Fecha / Hora Temperatura Humedad Lluvia Velocidad Dirección Radiación Presion
38 Monte Patria - Chilecito 05-05-2026 09:15 16,9 38,1 0 0 303 49,4 937,4
37 Monte Patria - Chilecito 05-05-2026 09:00 18,1 35,7 0 0 293 148,1 937,5
36 Monte Patria - Chilecito 05-05-2026 08:45 15,8 38,3 0 0 293 60,6 937,5
35 Monte Patria - Chilecito 05-05-2026 08:30 14,1 41,9 0 0 293 203,1 937,5
34 Monte Patria - Chilecito 05-05-2026 08:15 13,1 49 0 0 292 90,6 937,2
33 Monte Patria - Chilecito 05-05-2026 08:00 10,8 52,4 0 0 292 20,6 937
32 Monte Patria - Chilecito 05-05-2026 07:45 10,6 54,7 0 0 292 16,9 936,9
31 Monte Patria - Chilecito 05-05-2026 07:30 10,2 55,6 0 0 292 5,6 936,7
30 Monte Patria - Chilecito 05-05-2026 07:15 10,1 54,9 0 0 292 1,9 936,6
29 Monte Patria - Chilecito 05-05-2026 07:00 9,9 55,3 0 0 292 0,6 936,8
28 Monte Patria - Chilecito 05-05-2026 06:45 10,5 52,9 0 0 292 0,6 936,5
27 Monte Patria - Chilecito 05-05-2026 06:30 10,2 53,2 0 0 292 0,6 936,4
26 Monte Patria - Chilecito 05-05-2026 06:15 10,6 52,7 0 0 292 0,6 936,2
25 Monte Patria - Chilecito 05-05-2026 06:00 11,1 49,2 0 0 292 0,6 935,8
24 Monte Patria - Chilecito 05-05-2026 05:45 11,7 45,6 0 0 292 0,6 935,6
23 Monte Patria - Chilecito 05-05-2026 05:30 11,7 44,8 0 0 292 0,6 935,5
22 Monte Patria - Chilecito 05-05-2026 05:15 11,8 43,5 0 0 292 0,6 935,5
21 Monte Patria - Chilecito 05-05-2026 05:00 12,1 43,4 0 0 292 0,6 935,5
20 Monte Patria - Chilecito 05-05-2026 04:45 12,3 43,6 0 0 292 0,6 935
19 Monte Patria - Chilecito 05-05-2026 04:30 12,4 41,9 0 0 292 0,6 934,5
18 Monte Patria - Chilecito 05-05-2026 04:15 12,8 43,5 0 0 292 0,6 934,7
17 Monte Patria - Chilecito 05-05-2026 04:00 12,2 43,6 0 0 292 0,6 935
16 Monte Patria - Chilecito 05-05-2026 03:45 12,3 44,6 0 0 292 0,6 935,1
15 Monte Patria - Chilecito 05-05-2026 03:30 12,4 44,2 0 0 292 0,6 935,5
14 Monte Patria - Chilecito 05-05-2026 03:15 12,4 45,6 0 0 292 0,6 935,7
13 Monte Patria - Chilecito 05-05-2026 03:00 12,6 44,9 0 0 292 0,6 935,7
12 Monte Patria - Chilecito 05-05-2026 02:45 13 44 0 0 292 0,6 935,9
11 Monte Patria - Chilecito 05-05-2026 02:30 12,7 46,1 0 0 292 0,6 936,3
10 Monte Patria - Chilecito 05-05-2026 02:15 12,8 45,8 0 0 292 0,6 936,4
9 Monte Patria - Chilecito 05-05-2026 02:00 12,3 46,9 0 0 292 0,6 936,4
8 Monte Patria - Chilecito 05-05-2026 01:45 12,7 45,1 0 0 292 0,6 936,5
7 Monte Patria - Chilecito 05-05-2026 01:30 12,2 48,4 0 0 292 0,6 936,7
6 Monte Patria - Chilecito 05-05-2026 01:15 13 46,5 0 0 292 0,6 936,9
5 Monte Patria - Chilecito 05-05-2026 01:00 12,5 48,4 0 0 292 0,6 937,2
4 Monte Patria - Chilecito 05-05-2026 00:45 12,9 46,4 0 0 292 0,6 937,2
3 Monte Patria - Chilecito 05-05-2026 00:30 13,3 45,8 0 0 292 0,6 937,2
2 Monte Patria - Chilecito 05-05-2026 00:15 13,4 45,4 0 0 292 0,6 937,3
1 Monte Patria - Chilecito 05-05-2026 00:00 13,1 46 0 0 292 0,6 937,4